Location: Oshawa
(43.9000°N, 78.8670°W)
Time: 16:03:44
(UTC-04:00)

ITAMSAT 1 - Visible Passes

Search period start: 30 March 2015 00:00
Search period end: 09 April 2015 00:00
Orbit: 784 x 797 km, 98.7° (Epoch: 29 March)

Date Brightness Start Highest point End Pass type
(mag) Time Alt. Az. Time Alt. Az. Time Alt. Az.
30 Mar 9.7 02:54:30 10° NE 02:57:05 22° ENE 02:57:05 22° ENE visible
30 Mar 8.4 04:33:38 10° N 04:37:50 38° NW 04:37:50 38° NW visible
31 Mar 10.3 02:26:30 10° NE 02:27:38 13° ENE 02:27:38 13° ENE visible
31 Mar 8.0 04:04:12 10° N 04:08:23 56° NNW 04:08:23 56° NNW visible
31 Mar 9.7 05:46:39 10° NW 05:48:05 11° WNW 05:49:08 10° WNW visible
01 Apr 8.5 03:35:01 10° NNE 03:38:56 48° NE 03:38:56 48° NE visible
01 Apr 9.1 05:15:36 10° NNW 05:19:14 19° WNW 05:19:42 19° WNW visible
02 Apr 9.3 03:06:08 10° NNE 03:09:29 30° ENE 03:09:29 30° ENE visible
02 Apr 8.5 04:45:41 10° N 04:50:14 32° WNW 04:50:14 32° WNW visible
03 Apr 10.0 02:37:45 10° NE 02:40:02 17° ENE 02:40:02 17° ENE visible
03 Apr 7.9 04:16:08 10° N 04:20:47 55° NW 04:20:47 55° NW visible
04 Apr 7.9 03:46:50 10° NNE 03:51:20 65° NE 03:51:20 65° NE visible
04 Apr 9.4 05:27:57 10° NNW 05:30:58 15° WNW 05:32:05 14° WNW visible
05 Apr 8.8 03:17:49 10° NNE 03:21:53 40° ENE 03:21:53 40° ENE visible
05 Apr 8.8 04:57:47 10° N 05:02:03 26° WNW 05:02:37 25° WNW visible
06 Apr 9.6 02:49:11 10° NE 02:52:25 23° ENE 02:52:25 23° ENE visible
06 Apr 8.0 04:28:06 10° N 04:33:03 45° WNW 04:33:10 45° WNW visible
07 Apr 10.2 02:21:30 10° ENE 02:22:58 12° ENE 02:22:58 12° ENE visible
07 Apr 7.6 03:58:43 10° NNE 04:03:43 79° NW 04:03:43 79° NW visible
07 Apr 9.6 05:40:34 10° NNW 05:42:41 12° WNW 05:44:28 10° WNW visible
08 Apr 8.2 03:29:34 10° NNE 03:34:15 54° E 03:34:15 54° E visible
08 Apr 9.0 05:09:57 10° NNW 05:13:49 21° WNW 05:15:00 19° W visible
